Back to catalog

ARIANE 2 DEB

LostGTO
NORAD 42486·DEBRIS·🇫🇷 France

Launched Jan 27, 1989 from Guiana Space Centre

Loading…

TLE

StaleSource: Space-Track

Epoch: Aug 20, 2023, 12:30 UTC

1 42486U 89006CN  23232.52122181 -.00000149  00000-0  00000-0 0  9996
2 42486   9.4878 107.0309 6805249  30.9413 137.2197  2.19545463149087

Track ARIANE 2 DEB in real time with AllMySat

Download on the App Store